Location: Czekanka
(50.4925°N, 19.2643°E)
Time: 02:30:50
(UTC+00:00)

ALOS - Pass Details

Date: 15 June 2024
Orbit: 672 x 675 km, 98.0° (Epoch: 22 July)

Event Time Altitude Azimuth Distance (km) Brightness Sun altitude
Rises 01:26:02 0° 16° (NNE) 3,040 7.1 -7.9°
Reaches altitude 10° 01:28:18 10° 19° (NNE) 2,120 6.2 -7.7°
Maximum altitude 01:32:55 67° 102° (ESE) 732 2.6 -7.3°
Drops below altitude 10° 01:37:29 10° 186° (S) 2,101 4.3 -6.8°
Enters shadow 01:38:52 - 188° (S) 2,658 4.8 -6.7°
